Location: Unspecified
(0.0000°N, 0.0000°E)
Time: 01:14:54
(UTC+00:00)

ATLAS 5 CENTAUR DEB - Pass Details

Date: 19 February 2026
Orbit: 8295 x 34941 km, 19.8° (Epoch: 28 February)

Event Time Altitude Azimuth Distance (km) Brightness Sun altitude
Rises 18:16:00 0° 265° (W) 16,259 ? -0.5°
Reaches altitude 10° 18:28:24 10° 260° (W) 16,660 ? -3.6°
Maximum altitude 22:05:10 53° 233° (SW) 33,419 ? -56.2°
Drops below altitude 10° 06:29:32 10° 74° (ENE) 12,151 ? 3.9°
Sets 06:38:33 0° 80° (E) 13,424 ? 6.1°
